OpenBCM V1.08-5-g2f4a (Linux)

Packet Radio Mailbox

IZ3LSV

[San Dona' di P. JN]

 Login: GUEST





  
I0OJJ  > KEPS     21.08.25 01:40l 316 Lines 15020 Bytes #103 (0) @ AMSAT
BID : ORB25233.1
Read: GUEST
Subj: 2Line Orbital Elements 25233.AMSAT
Path: IZ3LSV<IK6IHL<IK7NXU<HB9ON<HB9ON<PI8ZTM<IR0AAB<I0OJJ
Sent: 250821/0025z @:I0OJJ.ITA.EU [Rome] obcm1.08-10-g596e
From: I0OJJ @ I0OJJ.ITA.EU (Gustavo)
To:   KEPS @ AMSAT
X-Info: This message was generated automatically


QST de KM1P

AMSAT Orbital Elements for Amateur Satellites in TLE Format
From Orbital Analysis Auxilliary Summer Office
New England Sci-Tech STEM Education Center
Narragansett RI August 21, 2025
To all radio amateurs


These element sets describe the orbits of various satellites 
in use by the amateur radio community. For details see:
www.amsat.org/keplerian-elements-formats/

A daily update of element sets is available at:
www.amsat.org/tle/daily-bulletin.txt
or without bulletin text:
www.amsat.org/tle/dailytle.txt


AO-07
1 07530U 74089B   25232.55603329 -.00000026  00000-0  12538-3 0  9991
2 07530 101.9967 237.5922 0012165 346.8134 128.6004 12.53690894322841
UO-11
1 14781U 84021B   25232.48285900  .00001175  00000-0  12885-3 0  9997
2 14781  97.7609 197.4605 0009414  97.5398 262.6889 14.89566909212342
AO-27
1 22825U 93061C   25232.59559917  .00000070  00000-0  43893-4 0  9990
2 22825  98.7315 294.4917 0007294 260.4897  99.5461 14.30819038664016
FO-29
1 24278U 96046B   25232.24834095 -.00000040  00000-0 -64561-5 0  9990
2 24278  98.5643 116.6809 0350283 156.7568 204.9857 13.53251747432462
NOAA-15
1 25338U 98030A   25231.77009435  .00000153  00000-0  80310-4 0  9994
2 25338  98.5336 255.1809 0010950 145.7140 214.4750 14.27013376418307
GO-32
1 25397U 98043D   25232.55581772  .00000060  00000-0  46225-4 0  9993
2 25397  98.9771 213.1991 0001762  40.4191 319.7117 14.24330566408533
ISS
1 25544U 98067A   25232.46847203  .00013114  00000-0  23692-3 0  9993
2 25544  51.6355 348.4629 0003387 244.7503 115.3135 15.50052228525134
NO-44
1 26931U 01043C   25232.59693118  .00000098  00000-0  67649-4 0  9998
2 26931  67.0514 301.6354 0006770 276.1142  83.9188 14.31764426247414
SO-50
1 27607U 02058C   25232.56779859  .00000935  00000-0  13274-3 0  9994
2 27607  64.5545 338.2918 0063916 318.6488  40.9787 14.81797381219893
CO-55
1 27844U 03031E   25232.55935985  .00000275  00000-0  13857-3 0  9996
2 27844  98.6780 239.9101 0009245 346.1377  13.9547 14.24044103148882
CO-57
1 27848U 03031J   25232.47126373  .00000235  00000-0  12302-3 0  9994
2 27848  98.6810 239.7742 0009569   4.0770 356.0485 14.23372026148592
RS-22
1 27939U 03042A   25232.57293701  .00001016  00000-0  16823-3 0  9998
2 27939  98.3344  43.7958 0012223 137.5440 311.9210 14.72503573171297
CO-58
1 28895U 05043F   25232.34354622  .00001491  00000-0  24974-3 0  9991
2 28895  98.2593  17.6365 0015655  80.8607 279.4369 14.71227658 57497
CO-65
1 32785U 08021C   25232.55692718  .00004723  00000-0  33649-3 0  9997
2 32785  97.7897 204.3068 0008749 339.4351  20.6522 15.05059500939900
CO-66
1 32791U 08021J   25232.48620700  .00012698  00000-0  58791-3 0  9993
2 32791  97.7326 214.2283 0001086 281.6896  78.4216 15.20259106941413
RS-30
1 32953U 08025A   25232.59160348  .00000021  00000-0  78588-4 0  9990
2 32953  82.5056 182.3995 0017893 248.1114 111.8063 12.43167365782348
NOAA-19
1 33591U 09005A   25232.55249513  .00000076  00000-0  64509-4 0  9994
2 33591  98.9925 297.6447 0014274 156.7241 203.4580 14.13397409852017
SRMSAT
1 37841U 11058D   25232.30140255  .00000390  00000-0  67985-4 0  9993
2 37841  19.9723  80.5226 0011792 133.9243  22.6128 14.11454217715255
ZACUBE-1
1 39417U 13066B   25232.44414541  .00004107  00000-0  35322-3 0  9991
2 39417  97.7858 189.1242 0043905 169.0138 191.2053 14.97220869635661
Delfi-N3xt
1 39428U 13066N   25232.34358779  .00005733  00000-0  57370-3 0  9995
2 39428  97.8300 149.2150 0085112 123.3289 237.6114 14.89103507629753
GOMX-1
1 39430U 13066Q   25232.54392263  .00001373  00000-0  21907-3 0  9999
2 39430  97.6765  86.7767 0131103 322.6493  36.5652 14.67888495625785
LO-74
1 39440U 13066AA  25232.59319136  .00004034  00000-0  40601-3 0  9992
2 39440  97.8518 176.6875 0059822 303.3738  56.1763 14.90440448632167
AO-73
1 39444U 13066AE  25232.32753339  .00006501  00000-0  47673-3 0  9991
2 39444  97.7844 194.5755 0042328 142.3825 218.0374 15.03132263634368
DTUSAT-2
1 40030U 14033W   25232.45303237  .00006330  00000-0  40325-3 0  9998
2 40030  98.0610 207.8132 0009572 164.4894 195.6629 15.09097767607232
EO-80
1 40032U 14033Y   25232.46965833  .00007012  00000-0  44514-3 0  9999
2 40032  98.0491 207.3850 0010373 113.5801 246.6516 15.09174552607215
LILACSAT-2
1 40908U 15049K   25232.55622748  .00011405  00000-0  28378-3 0  9995
2 40908  97.5045 254.7074 0006942 256.0359 104.0116 15.40421294549309
IO-86
1 40931U 15052B   25151.18580175  .00001241  00000-0  78118-4 0  9996
2 40931   6.0006  24.0987 0012733 338.8432  21.1169 14.78805930523159
Horyu-4
1 41340U 16012D   25232.56601823  .00025161  00000-0  60996-3 0  9995
2 41340  30.9971   6.8322 0007340  88.8938 271.2549 15.39802811523886
Lapan A3
1 41603U 16040E   25232.57011997  .00003534  00000-0  12283-3 0  9992
2 41603  97.1399 234.3811 0011385  22.7384 337.4360 15.30306273508795
CAS-2T
1 41847U 16066G   25232.48929404  .00000579  00000-0  92266-4 0  9997
2 41847  98.4162 306.3157 0344719 321.0912  36.5916 14.43659690461397
CAS-4B
1 42759U 17034B   25232.50163731  .00117336  00000-0  76470-3 0  9990
2 42759  43.0020 250.0797 0020575  76.1704 284.1453 15.74494968453895
CAS-4A
1 42761U 17034D   25232.45882900  .00143134  00000-0  84024-3 0  9992
2 42761  43.0052 246.4560 0021345  81.5431 278.7857 15.76758399453916
TechnoSat
1 42829U 17042E   25232.53158903  .00003181  00000-0  24533-3 0  9990
2 42829  97.3987  37.8241 0018236  41.7298 318.5314 15.02144708441529
AO-91
1 43017U 17073E   25232.58549434  .00007667  00000-0  38722-3 0  9990
2 43017  97.5147 101.5481 0167964 281.2061  77.0327 15.05839911420041
S-Net D
1 43186U 18014G   25232.29812580  .00004745  00000-0  27659-3 0  9997
2 43186  97.5540 134.4719 0008434 350.7869   9.3206 15.12433308413211
S-Net B
1 43187U 18014H   25232.30446520  .00004492  00000-0  26217-3 0  9995
2 43187  97.5546 134.4536 0008955 345.0407  15.0557 15.12413851413212
S-Net A
1 43188U 18014J   25232.29826000  .00004736  00000-0  27605-3 0  9992
2 43188  97.5553 134.6071 0008859 345.7983  14.2997 15.12439135413218
S-Net C
1 43189U 18014K   25232.24088052  .00004509  00000-0  26315-3 0  9990
2 43189  97.5569 134.5767 0010110 336.7366  23.3405 15.12410333411756
Ten-Koh
1 43677U 18084G   25232.47273617  .00002183  00000-0  17668-3 0  9994
2 43677  98.0833  47.5759 0007688  37.3265 322.8491 15.00866903371022
PO-101
1 43678U 18084H   25232.57323963  .00002196  00000-0  18836-3 0  9998
2 43678  98.1067  51.4732 0009089  57.4968 302.7130 14.98608528371163
QO-100
1 43700U 18090A   25232.25669740  .00000127  00000-0  00000-0 0  9995
2 43700   0.0153 167.6675 0001017  11.0064 268.3801  1.00272838 24650
MinXSS-2
1 43758U 18099A   25232.42851349  .00017267  00000-0  63875-3 0  9999
2 43758  97.4973 298.7739 0010074 258.9476 101.0630 15.27712391367933
AO-95
1 43770U 18099N   25231.65322026  .00008090  00000-0  39667-3 0  9998
2 43770  97.4866 288.9836 0009236 331.4815  28.5912 15.18353512367335
SNUSat 2
1 43782U 18099AA  25232.59686309  .00006543  00000-0  34835-3 0  9995
2 43782  97.4549 286.0721 0010193 261.8259  98.1817 15.15518189367405
SnugLite
1 43784U 18099AC  25232.59021794  .00008735  00000-0  42402-3 0  9992
2 43784  97.4361 285.7817 0001929 247.0376 113.0655 15.18708082367564
ITASat 1
1 43786U 18099AE  25232.61893200  .00006181  00000-0  34603-3 0  9993
2 43786  97.4517 285.3857 0012778 322.0197  38.0133 15.13724458367352
EAGLET 1
1 43790U 18099AJ  25232.41683010  .00004220  00000-0  26633-3 0  9998
2 43790  97.4716 284.8966 0010475 307.1735  52.8537 15.09580109366907
ESEO
1 43792U 18099AL  25232.58268519  .00001281  00000-0  99847-4 0  9993
2 43792  97.4438 277.3460 0009735 278.5431  81.4691 15.02850386366636
JO-97
1 43803U 18099AX  25232.40078110  .00012163  00000-0  53105-3 0  9990
2 43803  97.4615 290.8818 0006020 245.7046 114.3561 15.22260785367694
Suomi 100
1 43804U 18099AY  25232.60178693  .00008845  00000-0  41826-3 0  9999
2 43804  97.4678 290.1612 0010630 253.0675 106.9395 15.19570177367632
ISAT
1 43879U 18111D   25232.51612740  .00021545  00000-0  68860-3 0  9991
2 43879  97.5892 148.6022 0005784 315.7456  44.3322 15.32455439364700
UWE-4
1 43880U 18111E   25232.50205770  .00016092  00000-0  59383-3 0  9994
2 43880  97.5836 146.5331 0009694 327.9164  32.1484 15.27813293364608
Sparrow
1 43881U 18111F   25232.50196044  .00023223  00000-0  70990-3 0  9999
2 43881  97.6050 151.7582 0005788  10.1924 349.9434 15.33860057364802
Prox-1
1 44339U 19036A   25232.53086111  .00010511  00000-0  12842-2 0  9998
2 44339  23.9977 308.7215 0007276 165.2381 194.8329 14.81254254328696
Taurus 1
1 44530U 19059C   25232.51909197  .00005934  00000-0  10771-2 0  9994
2 44530  98.6134  15.3914 0009828 167.8964 192.2477 14.66585381314489
Duchifat 3
1 44854U 19089C   25232.40931887  .00062324  00000-0  96705-3 0  9993
2 44854  36.9391 256.4987 0006435 187.9261 172.1397 15.52888604314163
TO-108
1 44881U 19093C   25232.55854625  .00000746  00000-0  92031-4 0  9997
2 44881  97.7886 306.6943 0013658   1.5545 358.5711 14.85727643306765
FloripaSat 1
1 44885U 19093G   25232.51714344  .00005181  00000-0  43076-3 0  9992
2 44885  97.8140 320.2893 0008495 328.2965  31.7745 14.99130215307527
RS-44
1 44909U 19096E   25232.55893020  .00000015  00000-0  97759-5 0  9995
2 44909  82.5242 179.4615 0218288 127.0773 235.0505 12.79742657263898
UPMSat 2
1 46276U 20061E   25232.46905576  .00133979  00000-0  69603-3 0  9999
2 46276  97.2366 309.7957 0002048 208.2411 151.8747 15.80608783276770
SALSAT
1 46495U 20068K   25232.48536974  .00007179  00000-0  30239-3 0  9998
2 46495  97.8660 213.9044 0009093 272.1343  87.8852 15.23649094269471
